Skip Page Navigation
NASA JPL Caltech
NASA Logo - Jet Propulsion Laboratory + View the NASA Portal
+ Center for Near-Earth Object Studies
JPL Home Earth Solar System Stars & Galaxies Technology
JPL Solar System Dynamics
BODIES ORBITS EPHEMERIDES TOOLS PHYSICAL DATA DISCOVERY FAQ SITE MAP
JPL Small-Body Database Browser
Search: [ help ]  
190219 (2006 CG53)
Classification: Main-belt Asteroid          SPK-ID: 2190219
Ephemeris | Orbit Diagram | Orbital Elements | Mission Design | Physical Parameters | Discovery Circumstances | Close-Approach Data ]

[ show orbit diagram ]
Orbital Elements at Epoch 2459200.5 (2020-Dec-17.0) TDB
Reference: JPL 14 (heliocentric ecliptic J2000)
 Element Value Uncertainty (1-sigma)   Units 
e .1214185457425924 5.6481e-08  
a 3.043146005797742 3.2311e-08 au
q 2.673651643291401 1.7137e-07 au
i 1.912372127766635 5.9956e-06 deg
node 313.7939697378812 0.00018214 deg
peri 353.0715790902031 0.00018471 deg
M 122.0694056934059 2.9229e-05 deg
tp 2458543.013347382714
(2019-Feb-28.51334738)
0.00016084 TDB
period 1939.021441103069
5.31
3.0881e-05
8.455e-08
d
yr
n .1856606597373176 2.9569e-09 deg/d
Q 3.412640368304083 3.6234e-08 au
  Orbit Determination Parameters
   # obs. used (total)      319  
   data-arc span      6841 days (18.73 yr)  
   first obs. used      2002-05-11  
   last obs. used      2021-02-01  
   planetary ephem.      DE441  
   SB-pert. ephem.      SB441-N16  
   condition code      0  
   norm. resid. RMS      .53675  
   source      ORB  
   producer      Otto Matic  
   solution date      2021-Apr-13 22:06:44  

Additional Information
 Earth MOID = 1.65677 au 
 Jupiter MOID = 1.81817 au 
 T_jup = 3.227 
[ hide covariance matrix ]
Orbital Elements at Epoch 2457413.5 (2016-Jan-26.0) TDB
Reference: JPL 14 (heliocentric ecliptic J2000)
 Element Value Uncertainty (1-sigma)   Units 
e .1247753473048951 5.6674e-08  
q 2.660615184022626 1.7288e-07 au
tp 2456605.880064821070
(2013-Nov-09.38006482)
0.00017022 TDB
node 314.1342509192178 0.00018154 deg
peri 352.8546809349789 0.00018399 deg
i 1.916357854251489 6.0169e-06 deg
  Orbit Determination Parameters
   # obs. used (total)      319  
   data-arc span      6841 days (18.73 yr)  
   first obs. used      2002-05-11  
   last obs. used      2021-02-01  
   planetary ephem.      DE441  
   SB-pert. ephem.      SB441-N16  
   condition code      0  
   norm. resid. RMS      .53675  
   source      ORB  
   producer      Otto Matic  
   solution date      2021-Apr-13 22:06:44  

Additional Information
 Jupiter MOID = 1.81817 au 
 T_jup = 3.227 
Orbit Covariance (6×6)
  e q tp node peri i
e 3.21197286640703E-15 -9.665653508844898E-15 4.283036579251364E-12 1.358060196133004E-14 6.989942589376683E-13 -1.15331535332757E-15
q -9.665653508844898E-15 2.988625221649671E-14 -1.55445194885278E-11 -4.120463411225939E-14 -2.536280410187609E-12 4.378655743943502E-15
tp 4.283036579251364E-12 -1.55445194885278E-11 2.897618711316862E-8 2.80908515254945E-11 5.151864922323533E-9 -5.184477597239887E-12
node 1.358060196133004E-14 -4.120463411225939E-14 2.80908515254945E-11 3.295546919385228E-8 -3.293143340393877E-8 5.406050303219578E-10
peri 6.989942589376683E-13 -2.536280410187609E-12 5.151864922323533E-9 -3.293143340393877E-8 3.385400437225783E-8 -5.412224771395024E-10
i -1.15331535332757E-15 4.378655743943502E-15 -5.184477597239887E-12 5.406050303219578E-10 -5.412224771395024E-10 3.620269147516611E-11

Ephemeris | Orbit Diagram | Orbital Elements | Mission Design | Physical Parameters | Discovery Circumstances | Close-Approach Data ]

Physical Parameter Table
Parameter Symbol Value Units Sigma Reference Notes
absolute magnitude H 15.85   n/a MPCxxxxx  
diameter diameter 4.411 km 1.199 urn:nasa:pds:neowise_diameters_albedos::2.0[mainbelt] (http://adsabs.harvard.edu/abs/2011ApJ...741...68M)  
geometric albedo albedo 0.048   0.027 urn:nasa:pds:neowise_diameters_albedos::2.0[mainbelt] (http://adsabs.harvard.edu/abs/2011ApJ...741...68M)  

190219 (2006 CG53)          Discovered 2006-Feb-04 by Spacewatch at Kitt Peak
Reference: 20080819/Numbers.arcLast Updated: 2008-08-25

[ hide close-approach data ]
Close-Approach Data   ...sorted by Date/Time (TDB)
Date/Time (TDB) Time Uncertainty
(days_HH:MM)
Body Nominal Distance (au) Minimum Distance (au) Maximum Distance (au) V-relative (km/s) V-infinity (km/s) JD (TDB) Time Uncertainty (minutes) Semi-major axis (km) Semi-minor axis (km) range-LOV angle (deg) N-sigma BP Orbit Ref. Reference Modified
1931-May-28 16:55 00:04 Jupiter 1.84781300654201 1.84781192032499 1.84781409275871 2.3797840879351 2.17866668154731 2426490.205163249 4.22995820700147 77.2335724490567 32.1156107743252 -78.6308884686808 1667676.49982715 T 14 CATAB v2.0f-lin.ifort 2021-Apr-13 22:06:45 2021-Apr-13 22:06
1940-Oct-19 19:38 00:04 Jupiter 1.97241813232717 1.97241714978905 1.97241911486787 3.49397367442735 3.36882545514668 2429922.318287090 3.7330554930592 151.036327545592 21.6461607782366 -79.34847022265 2344205.90713836 T 14 CATAB v2.0f-lin.ifort 2021-Apr-13 22:06:45 2021-Apr-13 22:06
1979-Jun-30 15:45 00:02 Jupiter 1.93190054806762 1.93189972080162 1.93190137533351 2.54476610815994 2.36621100267419 2444055.156420960 1.75971878136045 73.0334546718921 23.1897985466288 -81.6823396410736 1827517.60218538 T 14 CATAB v2.0f-lin.ifort 2021-Apr-13 22:06:45 2021-Apr-13 22:06
1988-Nov-21 01:13 00:01 Jupiter 1.8886443981791 1.88864385990949 1.88864493644871 2.94547711712183 2.7890629220525 2447486.550652066 1.33860958351747 66.1768965569407 17.6160153485454 -86.0567883161203 2586857.83409461 T 14 CATAB v2.0f-lin.ifort 2021-Apr-13 22:06:45 2021-Apr-13 22:06
2036-Dec-26 20:02 00:01 Jupiter 1.83671584884007 1.8367151887219 1.83671650895812 2.58183479514375 2.39657005850115 2465054.334661025 1.20085940971307 70.3119946271647 11.9611386879962 -82.3933154308223 1861759.74886947 T 14 CATAB v2.0f-lin.ifort 2021-Apr-13 22:06:45 2021-Apr-13 22:06
2085-Jan-29 21:11 00:04 Jupiter 1.82554085439812 1.8255404184586 1.82554129033753 2.4095495493825 2.20861046693099 2482620.382426778 3.67197036357864 74.3967580878484 11.3592134877563 -89.3918988553327 2033424.94407581 T 14 CATAB v2.0f-lin.ifort 2021-Apr-13 22:06:45 2021-Apr-13 22:06
2133-Mar-04 22:37 00:06 Jupiter 1.85915480830992 1.85915380503707 1.85915581158329 2.39425237003679 2.19573529115126 2500185.442599572 6.13485973701116 104.624502220906 27.5366536882749 -72.7257063285331 2126559.24122564 T 14 CATAB v2.0f-lin.ifort 2021-Apr-13 22:06:45 2021-Apr-13 22:06
2142-Aug-01 01:11 00:06 Jupiter 1.98888903903477 1.98888666269526 1.98889141538264 3.56656304812656 3.44508600184334 2503621.549009683 6.40134676807486 247.437426447473 22.9070409468544 -69.9329060643778 1972185.04118173 T 14 CATAB v2.0f-lin.ifort 2021-Apr-13 22:06:45 2021-Apr-13 22:06
2181-Apr-05 14:35 00:09 Jupiter 1.93269764533889 1.93269521617419 1.93270007451447 2.51340190551079 2.33252454474283 2517749.107614600 8.53560734506673 283.238581202444 23.2478955442892 -73.4286880072205 1783714.02561518 T 14 CATAB v2.0f-lin.ifort 2021-Apr-13 22:06:45 2021-Apr-13 22:06
2190-Sep-01 15:28 00:09 Jupiter 1.90273815052435 1.90273561276461 1.90274068829253 3.01191441477852 2.86029873729251 2521185.144425679 9.04517481682949 253.884126447591 17.5805779694565 -74.4291277571209 1587595.02081583 T 14 CATAB v2.0f-lin.ifort 2021-Apr-13 22:06:45 2021-Apr-13 22:06

Alternate Designations
 2006 CG53 = 2006 BQ271 
Ephemeris | Orbit Diagram | Orbital Elements | Mission Design | Physical Parameters | Discovery Circumstances | Close-Approach Data ]
ABOUT SSD CREDITS/AWARDS PRIVACY/COPYRIGHT GLOSSARY LINKS
FirstGov 2021-Jun-19 07:11 UT
(server date/time)  
NASA Home Page
Site Manager:   Ryan S. Park
Webmaster  Alan B. Chamberlin